H1 CPF 2 NER 2022 3 22 9 081 01 glonass138 H2 1805301 9138 43508 2022 3 22 0 0 0 2022 3 25 23 45 0 900 1 1 0 0 0 1 H9 10 0 59660 0.00000 0 15547484.530 -20201778.595 1228057.970 10 0 59660 900.00000 0 15215294.177 -20009196.043 4422535.805 10 0 59660 1800.00000 0 14701957.570 -19458583.501 7531249.757 10 0 59660 2700.00000 0 14063124.137 -18538183.435 10493940.529 10 0 59660 3600.00000 0 13357015.532 -17249295.543 13253197.383 10 0 59660 4500.00000 0 12641818.817 -15606420.048 15755563.620 10 0 59660 5400.00000 0 11973097.990 -13636862.038 17952564.448 10 0 59660 6300.00000 0 11401332.436 -11379812.787 19801638.114 10 0 59660 7200.00000 0 10969685.350 -8884945.654 21266953.062 10 0 59660 8100.00000 0 10712095.360 -6210583.949 22320096.199 10 0 59660 9000.00000 0 10651771.084 -3421515.656 22940619.752 10 0 59660 9900.00000 0 10800151.564 -586544.387 23116436.664 10 0 59660 10800.00000 0 11156376.237 2224123.381 22844057.257 10 0 59660 11700.00000 0 11707287.079 4941547.998 22128662.516 10 0 59660 12600.00000 0 12427963.535 7500673.913 20984012.213 10 0 59660 13500.00000 0 13282768.791 9842787.237 19432188.938 10 0 59660 14400.00000 0 14226864.642 11917712.583 17503181.956 10 0 59660 15300.00000 0 15208132.515 13685658.489 15234317.813 10 0 59660 16200.00000 0 16169420.985 15118635.051 12669547.490 10 0 59660 17100.00000 0 17051026.037 16201384.833 9858602.718 10 0 59660 18000.00000 0 17793300.055 16931788.072 6856036.973 10 0 59660 18900.00000 0 18339279.531 17320725.219 3720169.095 10 0 59660 19800.00000 0 18637220.153 17391402.526 511949.757 10 0 59660 20700.00000 0 18642931.313 17178169.125 -2706226.925 10 0 59660 21600.00000 0 18321810.155 16724875.744 -5871743.099 10 0 59660 22500.00000 0 17650487.710 16082844.791 -8922983.669 10 0 59660 23400.00000 0 16618016.002 15308538.264 -11800544.624 10 0 59660 24300.00000 0 15226544.381 14461022.927 -14448398.680 10 0 59660 25200.00000 0 13491455.106 13599340.930 -16814994.518 10 0 59660 26100.00000 0 11440951.209 12779898.005 -18854267.324 10 0 59660 27000.00000 0 9115112.976 12053980.533 -20526540.360 10 0 59660 27900.00000 0 6564461.877 11465507.112 -21799299.695 10 0 59660 28800.00000 0 3848091.672 11049110.015 -22647826.910 10 0 59660 29700.00000 0 1031444.537 10828627.692 -23055677.680 10 0 59660 30600.00000 0 -1816175.211 10816071.804 -23014997.293 10 0 59660 31500.00000 0 -4624246.157 11011112.000 -22526667.467 10 0 59660 32400.00000 0 -7323723.780 11401099.601 -21600282.159 10 0 59660 33300.00000 0 -9849671.614 11961628.548 -20253953.372 10 0 59660 34200.00000 0 -12143720.606 12657609.262 -18513951.250 10 0 59660 35100.00000 0 -14156255.166 13444809.459 -16414185.865 10 0 59660 36000.00000 0 -15848235.951 14271796.335 -13995541.140 10 0 59660 36900.00000 0 -17192584.675 15082197.714 -11305074.163 10 0 59660 37800.00000 0 -18175074.707 15817186.329 -8395095.764 10 0 59660 38700.00000 0 -18794691.959 16418082.195 -5322150.415 10 0 59660 39600.00000 0 -19063452.669 16828963.044 -2145915.624 10 0 59660 40500.00000 0 -19005687.530 16999172.658 1071957.596 10 0 59660 41400.00000 0 -18656823.841 16885621.283 4269040.516 10 0 59660 42300.00000 0 -18061718.236 16454781.200 7383335.316 10 0 59660 43200.00000 0 -17272611.284 15684293.436 10354473.185 10 0 59660 44100.00000 0 -16346790.702 14564117.975 13124878.864 10 0 59660 45000.00000 0 -15344061.905 13097178.992 15640879.379 10 0 59660 45900.00000 0 -14324132.268 11299477.703 17853736.120 10 0 59660 46800.00000 0 -13344018.736 9199667.473 19720581.030 10 0 59660 47700.00000 0 -12455587.157 6838108.154 21205239.583 10 0 59660 48600.00000 0 -11703325.896 4265437.913 22278925.550 10 0 59660 49500.00000 0 -11122446.480 1540720.637 22920794.876 10 0 59660 50400.00000 0 -10737390.259 -1270755.592 23118348.553 10 0 59660 51300.00000 0 -10560803.309 -4099939.216 22867677.040 10 0 59660 52200.00000 0 -10593022.404 -6876634.747 22173541.505 10 0 59660 53100.00000 0 -10822093.837 -9532173.964 21049289.923 10 0 59660 54000.00000 0 -11224324.761 -12002029.399 19516609.002 10 0 59660 54900.00000 0 -11765344.700 -14228262.740 17605115.697 10 0 59660 55800.00000 0 -12401633.500 -16161707.108 15351795.078 10 0 59660 56700.00000 0 -13082452.341 -17763792.934 12800294.239 10 0 59660 57600.00000 0 -13752097.298 -19007941.410 10000084.697 10 0 59660 58500.00000 0 -14352380.905 -19880467.260 7005508.655 10 0 59660 59400.00000 0 -14825237.146 -20380952.800 3874726.971 10 0 59660 60300.00000 0 -15115339.510 -20522077.411 668588.933 10 0 59660 61200.00000 0 -15172620.694 -20328909.373 -2550553.974 10 0 59660 62100.00000 0 -14954586.279 -19837689.894 -5720066.783 10 0 59660 63000.00000 0 -14428323.056 -19094160.843 -8778257.779 10 0 59660 63900.00000 0 -13572115.478 -18151507.152 -11665588.281 10 0 59660 64800.00000 0 -12376600.231 -17068001.475 -14325840.917 10 0 59660 65700.00000 0 -10845408.540 -15904451.370 -16707222.627 10 0 59660 66600.00000 0 -8995267.667 -14721557.689 -18763379.998 10 0 59660 67500.00000 0 -6855556.058 -13577296.530 -20454306.574 10 0 59660 68400.00000 0 -4467329.814 -12524435.860 -21747124.129 10 0 59660 69300.00000 0 -1881860.575 -11608292.012 -22616722.601 10 0 59660 70200.00000 0 841254.506 -10864820.715 -23046246.426 10 0 59660 71100.00000 0 3636332.140 -10319122.880 -23027418.186 10 0 59660 72000.00000 0 6434098.379 -9984427.603 -22560693.758 10 0 59660 72900.00000 0 9164336.478 -9861594.423 -21655246.484 10 0 59660 73800.00000 0 11758577.184 -9939154.846 -20328781.211 10 0 59660 74700.00000 0 14152719.800 -10193890.352 -18607182.315 10 0 59660 75600.00000 0 16289475.532 -10591921.446 -16524002.968 10 0 59660 76500.00000 0 18120532.148 -11090260.817 -14119805.924 10 0 59660 77400.00000 0 19608350.674 -11638764.192 -11441369.004 10 0 59660 78300.00000 0 20727520.429 -12182395.761 -8540770.974 10 0 59660 79200.00000 0 21465617.179 -12663711.973 -5474375.853 10 0 59660 80100.00000 0 21823530.051 -13025458.322 -2301735.674 10 0 59660 81000.00000 0 21815245.082 -13213169.225 915566.724 10 0 59660 81900.00000 0 21467096.029 -13177661.003 4115112.287 10 0 59660 82800.00000 0 20816515.285 -12877312.728 7234854.299 10 0 59660 83700.00000 0 19910338.499 -12280038.670 10214317.531 10 0 59660 84600.00000 0 18802735.003 -11364869.214 12995764.942 10 0 59660 85500.00000 0 17552851.460 -10123073.554 15525309.603 10 0 59661 0.00000 0 16222267.962 -8558776.864 17753950.756 10 0 59661 900.00000 0 14872372.361 -6689044.563 19638515.836 10 0 59661 1800.00000 0 13561764.263 -4543431.567 21142488.062 10 0 59661 2700.00000 0 12343794.347 -2163011.385 22236708.538 10 0 59661 3600.00000 0 11264342.976 401073.801 22899936.961 10 0 59661 4500.00000 0 10359929.550 3089484.088 23119261.967 10 0 59661 5400.00000 0 9656231.085 5836897.690 22890353.336 10 0 59661 6300.00000 0 9167071.471 8574481.492 22217551.198 10 0 59661 7200.00000 0 8893923.466 11232515.377 21113790.156 10 0 59661 8100.00000 0 8825944.307 13743062.989 19600359.129 10 0 59661 9000.00000 0 8940543.724 16042579.312 17706500.569 10 0 59661 9900.00000 0 9204461.038 18074347.462 15468855.657 10 0 59661 10800.00000 0 9575306.647 19790643.891 12930764.997 10 0 59661 11700.00000 0 10003503.578 21154541.898 10141437.144 10 0 59661 12600.00000 0 10434547.706 22141277.923 7155000.199 10 0 59661 13500.00000 0 10811491.352 22739123.175 4029454.158 10 0 59661 14400.00000 0 11077545.114 22949723.566 825544.059 10 0 59661 15300.00000 0 11178687.269 22787893.246 -2394424.009 10 0 59661 16200.00000 0 11066169.360 22280870.153 -5567800.563 10 0 59661 17100.00000 0 10698810.518 21467064.811 -8632819.627 10 0 59661 18000.00000 0 10044981.943 20394355.278 -11529809.906 10 0 59661 18900.00000 0 9084195.851 19118000.560 -14202365.660 10 0 59661 19800.00000 0 7808230.034 17698261.096 -16598453.473 10 0 59661 20700.00000 0 6221738.994 16197827.386 -18671432.390 10 0 59661 21600.00000 0 4342324.430 14679165.933 -20380967.003 10 0 59661 22500.00000 0 2200060.874 13201894.898 -21693815.317 10 0 59661 23400.00000 0 -163504.522 11820300.478 -22584475.922 10 0 59661 24300.00000 0 -2696836.872 10581098.615 -23035682.101 10 0 59661 25200.00000 0 -5340321.551 9521535.979 -23038733.575 10 0 59661 26100.00000 0 -8028515.888 8667909.560 -22593659.951 10 0 59661 27000.00000 0 -10692650.922 8034566.192 -21709213.224 10 0 59661 27900.00000 0 -13263279.231 7623422.953 -20402690.016 10 0 59661 28800.00000 0 -15672958.720 7424027.298 -18699587.535 10 0 59661 29700.00000 0 -17858861.005 7414152.979 -16633100.352 10 0 59661 30600.00000 0 -19765196.272 7560905.252 -14243468.127 10 0 59661 31500.00000 0 -21345354.114 7822287.477 -11577187.330 10 0 59661 32400.00000 0 -22563671.989 8149161.842 -8686102.513 10 0 59661 33300.00000 0 -23396758.475 8487520.479 -5626395.070 10 0 59661 34200.00000 0 -23834317.161 8780970.270 -2457489.418 10 0 59661 35100.00000 0 -23879438.045 8973325.796 759101.895 10 0 59661 36000.00000 0 -23548345.535 9011200.526 3960971.578 10 0 59661 36900.00000 0 -22869614.885 8846486.533 7086026.104 10 0 59661 37800.00000 0 -21882891.062 8438617.992 10073685.911 10 0 59661 38700.00000 0 -20637164.661 7756522.865 12866054.259 10 0 59661 39600.00000 0 -19188677.773 6780180.462 15409032.325 10 0 59661 40500.00000 0 -17598547.833 5501719.134 17653359.564 10 0 59661 41400.00000 0 -15930208.889 3926007.514 19555559.950 10 0 59661 42300.00000 0 -14246776.960 2070713.885 21078776.547 10 0 59661 43200.00000 0 -12608448.994 -34169.848 22193479.200 10 0 59661 44100.00000 0 -11070043.192 -2347321.011 22878032.462 10 0 59661 45000.00000 0 -9678782.508 -4817555.978 23119113.380 10 0 59661 45900.00000 0 -8472412.909 -7385717.540 22911971.469 10 0 59661 46800.00000 0 -7477734.104 -9986903.235 22260525.865 10 0 59661 47700.00000 0 -6709603.550 -12552943.767 21177297.457 10 0 59661 48600.00000 0 -6170454.946 -15015030.257 19683176.672 10 0 59661 49500.00000 0 -5850351.260 -17306382.542 17807030.384 10 0 59661 50400.00000 0 -5727570.205 -19364848.507 15585154.447 10 0 59661 51300.00000 0 -5769697.820 -21135326.891 13060581.223 10 0 59661 52200.00000 0 -5935184.531 -22571912.771 10282254.271 10 0 59661 53100.00000 0 -6175298.400 -23639675.872 7304085.315 10 0 59661 54000.00000 0 -6436393.280 -24315996.916 4183911.051 10 0 59661 54900.00000 0 -6662395.841 -24591405.326 982369.691 10 0 59661 55800.00000 0 -6797405.801 -24469882.422 -2238280.745 10 0 59661 56700.00000 0 -6788298.418 -23968616.751 -5415379.014 10 0 59661 57600.00000 0 -6587217.835 -23117221.397 -8487087.685 10 0 59661 58500.00000 0 -6153854.250 -21956446.044 -11393605.693 10 0 59661 59400.00000 0 -5457406.882 -20536438.130 -14078341.757 10 0 59661 60300.00000 0 -4478148.013 -18914626.678 -16489024.835 10 0 59661 61200.00000 0 -3208520.384 -17153318.468 -18578729.003 10 0 59661 62100.00000 0 -1653720.131 -15317108.371 -20306792.201 10 0 59661 63000.00000 0 168260.643 -13470213.319 -21639610.593 10 0 59661 63900.00000 0 2227134.509 -11673842.501 -22551292.917 10 0 59661 64800.00000 0 4481342.432 -9983714.381 -23024162.299 10 0 59661 65700.00000 0 6879558.345 -8447824.647 -23049096.102 10 0 59661 66600.00000 0 9362612.029 -7104558.291 -22625697.672 10 0 59661 67500.00000 0 11865750.310 -5981224.124 -21762297.199 10 0 59661 68400.00000 0 14321142.437 -5093072.038 -20475782.196 10 0 59661 69300.00000 0 16660525.287 -4442832.829 -18791261.409 10 0 59661 70200.00000 0 18817878.327 -4020798.285 -16741569.111 10 0 59661 71100.00000 0 20732017.122 -3805436.449 -14366619.776 10 0 59661 72000.00000 0 22348997.510 -3764514.530 -11712626.011 10 0 59661 72900.00000 0 23624230.721 -3856680.574 -8831195.272 10 0 59661 73800.00000 0 24524221.770 -4033435.796 -5778323.089 10 0 59661 74700.00000 0 25027859.292 -4241413.216 -2613302.773 10 0 59661 75600.00000 0 25127203.845 -4424865.432 602427.056 10 0 59661 76500.00000 0 24827742.748 -4528255.774 3806474.526 10 0 59661 77400.00000 0 24148101.795 -4498842.980 6936702.829 10 0 59661 78300.00000 0 23119226.931 -4289149.950 9932431.370 10 0 59661 79200.00000 0 21783070.964 -3859212.286 12735606.652 10 0 59661 80100.00000 0 20190840.927 -3178511.705 15291920.493 10 0 59661 81000.00000 0 18400879.707 -2227512.794 17551854.463 10 0 59661 81900.00000 0 16476270.509 -998738.174 19471631.110 10 0 59661 82800.00000 0 14482263.904 502663.531 21014054.298 10 0 59661 83700.00000 0 12483634.235 2258881.518 22149223.340 10 0 59661 84600.00000 0 10542074.682 4239941.092 22855107.936 10 0 59661 85500.00000 0 8713738.655 6404716.935 23117973.399 10 0 59662 0.00000 0 7047028.938 8702420.613 22932648.422 10 0 59662 900.00000 0 5580724.814 11074503.448 22302630.085 10 0 59662 1800.00000 0 4342526.589 13456894.233 21240024.110 10 0 59662 2700.00000 0 3348074.524 15782484.606 19765320.565 10 0 59662 3600.00000 0 2600484.982 17983757.120 17907008.529 10 0 59662 4500.00000 0 2090422.070 19995448.956 15701036.007 10 0 59662 5400.00000 0 1796701.899 21757140.830 13190124.340 10 0 59662 6300.00000 0 1687404.160 23215663.427 10422949.131 10 0 59662 7200.00000 0 1721444.404 24327220.581 7453202.641 10 0 59662 8100.00000 0 1850540.747 25059139.882 4338555.096 10 0 59662 9000.00000 0 2021491.804 25391176.558 1139534.713 10 0 59662 9900.00000 0 2178669.123 25316314.932 -2081651.659 10 0 59662 10800.00000 0 2266617.866 24841032.906 -5262333.957 10 0 59662 11700.00000 0 2232654.547 23985017.489 -8340606.009 10 0 59662 12600.00000 0 2029350.500 22780342.830 -11256539.371 10 0 59662 13500.00000 0 1616794.347 21270145.024 -13953359.266 10 0 59662 14400.00000 0 964536.115 19506849.447 -16378558.687 10 0 59662 15300.00000 0 53129.196 17550025.502 -18484928.017 10 0 59662 16200.00000 0 -1124796.503 15463959.346 -20231479.465 10 0 59662 17100.00000 0 -2563976.830 13315047.024 -21584247.942 10 0 59662 18000.00000 0 -4246495.678 11169117.897 -22516952.611 10 0 59662 18900.00000 0 -6142308.955 9088800.803 -23011506.411 10 0 59662 19800.00000 0 -8210288.962 7131043.280 -23058363.988 10 0 59662 20700.00000 0 -10399745.831 5344887.386 -22656701.717 10 0 59662 21600.00000 0 -12652362.720 3769594.486 -21814426.896 10 0 59662 22500.00000 0 -14904464.054 2433196.350 -20548016.455 10 0 59662 23400.00000 0 -17089522.144 1351531.879 -18882188.823 10 0 59662 24300.00000 0 -19140797.622 527808.085 -16849415.793 10 0 59662 25200.00000 0 -20994003.578 -47298.097 -14489284.212 10 0 59662 26100.00000 0 -22589882.267 -395003.322 -11847720.237 10 0 59662 27000.00000 0 -23876587.021 -547275.326 -8976091.549 10 0 59662 27900.00000 0 -24811770.219 -545234.224 -5930205.166 10 0 59662 28800.00000 0 -25364290.444 -437166.489 -2769220.685 10 0 59662 29700.00000 0 -25515468.070 -276236.691 445499.713 10 0 59662 30600.00000 0 -25259837.417 -117994.555 3651581.997 10 0 59662 31500.00000 0 -24605364.767 -17783.305 6786848.399 10 0 59662 32400.00000 0 -23573123.856 -28159.165 9790519.503 10 0 59662 33300.00000 0 -22196443.085 -196431.176 12604387.158 10 0 59662 34200.00000 0 -20519560.640 -562425.189 15173935.756 10 0 59662 35100.00000 0 -18595843.994 -1156566.299 17449390.725 10 0 59662 36000.00000 0 -16485648.123 -1998360.538 19386674.662 10 0 59662 36900.00000 0 -14253901.491 -3095339.891 20948253.401 10 0 59662 37800.00000 0 -11967519.799 -4442515.405 22103856.550 10 0 59662 38700.00000 0 -9692754.264 -6022362.157 22831059.416 10 0 59662 39600.00000 0 -7492583.765 -7805337.792 23115715.669 10 0 59662 40500.00000 0 -5424258.130 -9750914.458 22952232.862 10 0 59662 41400.00000 0 -3537093.518 -11809082.758 22343685.517 10 0 59662 42300.00000 0 -1870610.624 -13922266.757 21301763.341 10 0 59662 43200.00000 0 -453092.256 -16027572.023 19846554.929 10 0 59662 44100.00000 0 699380.301 -18059274.661 18006170.196 10 0 59662 45000.00000 0 1583372.289 -19951448.788 15816207.697 10 0 59662 45900.00000 0 2208003.567 -21640623.770 13319075.923 10 0 59662 46800.00000 0 2594323.699 -23068360.686 10563180.484 10 0 59662 47700.00000 0 2774180.311 -24183640.152 7601991.958 10 0 59662 48600.00000 0 2788628.423 -24944961.074 4493011.753 10 0 59662 49500.00000 0 2685948.012 -25322061.451 1296655.643 10 0 59662 50400.00000 0 2519353.909 -25297187.867 -1924923.205 10 0 59662 51300.00000 0 2344495.556 -24865859.175 -5109048.463 10 0 59662 52200.00000 0 2216853.395 -24037091.079 -8193747.781 10 0 59662 53100.00000 0 2189143.325 -22833071.228 -11118967.903 10 0 59662 54000.00000 0 2308840.556 -21288297.800 -13827753.071 10 0 59662 54900.00000 0 2615929.193 -19448217.402 -16267362.747 10 0 59662 55800.00000 0 3140974.279 -17367419.467 -18390305.892 10 0 59662 56700.00000 0 3903599.199 -15107463.163 -20155271.010 10 0 59662 57600.00000 0 4911434.063 -12734428.240 -21527933.470 10 0 59662 58500.00000 0 6159580.440 -10316292.876 -22481624.171 10 0 59662 59400.00000 0 7630615.867 -7920248.530 -22997846.741 10 0 59662 60300.00000 0 9295138.601 -5610064.148 -23066633.532 10 0 59662 61200.00000 0 11112830.176 -3443609.735 -22686733.924 10 0 59662 62100.00000 0 13033991.465 -1470642.151 -21865631.878 10 0 59662 63000.00000 0 15001488.110 269055.345 -20619392.884 10 0 59662 63900.00000 0 16953023.840 1747103.260 -18972343.828 10 0 59662 64800.00000 0 18823646.619 2947467.613 -16956592.421 10 0 59662 65700.00000 0 20548382.750 3866875.660 -14611395.902 10 0 59662 66600.00000 0 22064888.706 4514690.151 -11982391.628 10 0 59662 67500.00000 0 23316009.818 4912249.416 -9120704.793 10 0 59662 68400.00000 0 24252138.862 5091703.002 -6081950.866 10 0 59662 69300.00000 0 24833275.996 5094393.619 -2925152.454 10 0 59662 70200.00000 0 25030704.149 4968855.168 288408.130 10 0 59662 71100.00000 0 24828210.106 4768512.541 3496378.147 10 0 59662 72000.00000 0 24222800.602 4549181.212 6636542.230 10 0 59662 72900.00000 0 23224883.976 4366472.787 9648025.290 10 0 59662 73800.00000 0 21857910.176 4273216.397 12472467.385 10 0 59662 74700.00000 0 20157484.547 4317004.789 15055147.985 10 0 59662 75600.00000 0 18169992.538 4537968.590 17346038.488 10 0 59662 76500.00000 0 15950792.629 4966872.396 19300763.267 10 0 59662 77400.00000 0 13562052.472 5623612.768 20881451.454 10 0 59662 78300.00000 0 11070317.676 6516181.418 22057463.893 10 0 59662 79200.00000 0 8543913.437 7640137.561 22805982.040 10 0 59662 80100.00000 0 6050285.928 8978612.249 23112448.070 10 0 59662 81000.00000 0 3653392.635 10502845.637 22970848.145 10 0 59662 81900.00000 0 1411248.664 12173236.137 22383833.481 10 0 59662 82800.00000 0 -626270.157 13940859.172 21362676.590 10 0 59662 83700.00000 0 -2419277.224 15749393.833 19927062.980 10 0 59662 84600.00000 0 -3939302.052 17537378.625 18104721.372 10 0 59662 85500.00000 0 -5170235.210 19240703.439 15930898.476 10 0 59663 0.00000 0 -6108752.257 20795234.558 13447687.486 10 0 59663 900.00000 0 -6764199.613 22139464.305 10703220.656 10 0 59663 1800.00000 0 -7157946.015 23217072.409 7750744.034 10 0 59663 2700.00000 0 -7322228.650 23979294.105 4647587.053 10 0 59663 3600.00000 0 -7298541.333 24386992.624 1454049.858 10 0 59663 4500.00000 0 -7135633.654 24412348.701 -1767771.225 10 0 59663 5400.00000 0 -6887206.050 24040094.530 -4955196.658 10 0 59663 6300.00000 0 -6609399.132 23268238.888 -8046190.806 10 0 59663 7200.00000 0 -6358184.562 22108251.587 -10980578.250 10 0 59663 8100.00000 0 -6186769.206 20584698.428 -13701224.605 10 0 59663 9000.00000 0 -6143123.841 18734341.185 -16155157.804 10 0 59663 9900.00000 0 -6267742.341 16604739.998 -18294607.017 10 0 59663 10800.00000 0 -6591727.483 14252416.637 -20077938.300 10 0 59663 11700.00000 0 -7135285.364 11740655.678 -21470468.359 10 0 59663 12600.00000 0 -7906692.973 9137035.873 -22445140.348 10 0 59663 13500.00000 0 -8901783.181 6510795.163 -22983048.742 10 0 59663 14400.00000 0 -10103969.348 3930139.442 -23073803.370 10 0 59663 15300.00000 0 -11484808.840 1459607.398 -22715725.996 10 0 59663 16200.00000 0 -13005081.905 -842399.085 -21915876.189 10 0 59663 17100.00000 0 -14616340.671 -2925816.740 -20689906.525 10 0 59663 18000.00000 0 -16262863.184 -4750764.062 -19061750.446 10 0 59663 18900.00000 0 -17883930.417 -6288950.373 -17063149.305 10 0 59663 19800.00000 0 -19416330.680 -7524593.615 -14733028.154 10 0 59663 20700.00000 0 -20796986.269 -8454810.353 -12116732.745 10 0 59663 21600.00000 0 -21965592.131 -9089463.721 -9265142.863 10 0 59663 22500.00000 0 -22867155.891 -9450477.744 -6233679.467 10 0 59663 23400.00000 0 -23454332.702 -9570648.757 -3081225.236 10 0 59663 24300.00000 0 -23689457.102 -9492005.741 131020.254 10 0 59663 25200.00000 0 -23546186.860 -9263790.138 3340728.321 10 0 59663 26100.00000 0 -23010690.102 -8940141.512 6485648.643 10 0 59663 27000.00000 0 -22082326.227 -8577587.508 9504812.955 10 0 59663 27900.00000 0 -20773792.312 -8232444.533 12339711.828 10 0 59663 28800.00000 0 -19110729.032 -7958238.961 14935421.904 10 0 59663 29700.00000 0 -17130802.560 -7803257.534 17241662.351 10 0 59663 30600.00000 0 -14882300.489 -7808329.990 19213760.784 10 0 59663 31500.00000 0 -12422299.929 -8004936.947 20813510.714 10 0 59663 32400.00000 0 -9814483.221 -8413722.480 22009904.890 10 0 59663 33300.00000 0 -7126691.116 -9043473.872 22779731.177 10 0 59663 34200.00000 0 -4428313.879 -9890611.657 23108020.114 10 0 59663 35100.00000 0 -1787627.249 -10939211.983 22988335.987 10 0 59663 36000.00000 0 730817.635 -12161561.362 22422905.896 10 0 59663 36900.00000 0 3068643.319 -13519221.830 21422584.101 10 0 59663 37800.00000 0 5175833.691 -14964563.447 20006651.737 10 0 59663 38700.00000 0 7012570.332 -16442701.542 18202454.843 10 0 59663 39600.00000 0 8550641.830 -17893759.003 16044886.602 10 0 59663 40500.00000 0 9774367.856 -19255360.069 13575722.546 10 0 59663 41400.00000 0 10680999.700 -20465251.897 10842820.367 10 0 59663 42300.00000 0 11280580.582 -21463944.204 7899198.843 10 0 59663 43200.00000 0 11595271.725 -22197255.965 4802012.939 10 0 59663 44100.00000 0 11658172.612 -22618661.436 1611444.533 10 0 59663 45000.00000 0 11511685.331 -22691335.678 -1610469.609 10 0 59663 45900.00000 0 11205492.478 -22389812.084 -4801049.489 10 0 59663 46800.00000 0 10794234.703 -21701180.557 -7898198.902 10 0 59663 47700.00000 0 10334987.004 -20625774.299 -10841622.904 10 0 59663 48600.00000 0 9884641.662 -19177314.902 -13574010.997 10 0 59663 49500.00000 0 9497309.772 -17382508.409 -16042161.940 10 0 59663 50400.00000 0 9221852.594 -15280108.485 -18198027.245 10 0 59663 51300.00000 0 9099648.283 -12919485.464 -19999652.385 10 0 59663 52200.00000 0 9162689.459 -10358760.925 -21411996.923 10 0 59663 53100.00000 0 9432092.755 -7662585.905 -22407617.403 10 0 59663 54000.00000 0 9917083.813 -4899655.621 -22967199.840 10 0 59663 54900.00000 0 10614500.856 -2140064.493 -23079931.798 10 0 59663 55800.00000 0 11508837.860 547388.221 -22743707.235 10 0 59663 56700.00000 0 12572825.427 3097830.199 -21965160.733 10 0 59663 57600.00000 0 13768524.781 5452776.127 -20759530.962 10 0 59663 58500.00000 0 15048888.586 7562314.369 -19150356.568 10 0 59663 59400.00000 0 16359722.711 9386930.289 -17169010.863 10 0 59663 60300.00000 0 17641966.198 10898891.654 -14854084.690 10 0 59663 61200.00000 0 18834193.346 12083139.892 -12250629.855 10 0 59663 62100.00000 0 19875232.525 12937651.896 -9409278.090 10 0 59663 63000.00000 0 20706791.502 13473259.209 -6385252.923 10 0 59663 63900.00000 0 21275978.810 13712934.110 -3237293.978 10 0 59663 64800.00000 0 21537615.166 13690574.518 -26514.849 10 0 59663 65700.00000 0 21456237.848 13449340.479 3184783.110 10 0 59663 66600.00000 0 21007713.902 13039613.660 6334317.799 10 0 59663 67500.00000 0 20180394.550 12516666.878 9361030.778 10 0 59663 68400.00000 0 18975762.439 11938142.563 12206265.859 10 0 59663 69300.00000 0 17408544.583 11361446.768 14814899.272 10 0 59663 70200.00000 0 15506286.130 10841168.499 17136400.028 10 0 59663 71100.00000 0 13308402.327 10426632.827 19125800.709 10 0 59663 72000.00000 0 10864747.726 10159690.317 20744560.585 10 0 59663 72900.00000 0 8233761.317 10072835.308 21961305.342 10 0 59663 73800.00000 0 5480263.617 10187731.738 22752429.933 10 0 59663 74700.00000 0 2672995.995 10514208.259 23102553.571 10 0 59663 75600.00000 0 -117997.165 11049764.928 23004818.569 10 0 59663 76500.00000 0 -2824036.375 11779612.666 22461027.405 10 0 59663 77400.00000 0 -5380415.816 12677244.626 21481615.124 10 0 59663 78300.00000 0 -7728846.099 13705516.643 20085457.074 10 0 59663 79200.00000 0 -9819630.741 14818192.755 18299514.769 10 0 59663 80100.00000 0 -11613486.660 15961892.282 16158325.619 10 0 59663 81000.00000 0 -13082933.505 17078357.967 13703345.170 10 0 59663 81900.00000 0 -14213194.178 18106950.828 10982153.301 10 0 59663 82800.00000 0 -15002568.975 18987267.375 8047538.770 10 0 59663 83700.00000 0 -15462267.661 19661769.108 4956479.022 10 0 59663 84600.00000 0 -15615706.573 20078313.103 1769034.593 10 0 59663 85500.00000 0 -15497300.297 20192476.094 -1452820.368 99